| time (UTC) | temp F | wind direction | speed MPH | gust MPH | rain 1hr in | rain 24hr in | rain mn in | humidity % | barometer mb |
| 20260902060001 | 58 | 88 | 0.0 | 0.0 | 0.00 | 0.27 | 0.00 | 97 | 1019.4 |
| 20260902054603 | 58 | 88 | 0.0 | 0.0 | 0.00 | 0.27 | 0.00 | 97 | 1019.2 |
| 20260902053005 | 59 | 88 | 0.0 | 0.0 | 0.00 | 0.27 | 0.00 | 98 | 1019.0 |
| 20260902051501 | 59 | 88 | 0.0 | 0.0 | 0.00 | 0.27 | 0.00 | 97 | 1019.0 |
| 20260902050059 | 59 | 88 | 0.0 | 0.0 | 0.00 | 0.27 | 0.00 | 98 | 1019.0 |
| 20260902044557 | 59 | 88 | 0.0 | 0.0 | 0.00 | 0.27 | 0.00 | 98 | 1018.9 |
| 20260902043047 | 59 | 88 | 0.0 | 0.0 | 0.00 | 0.27 | 0.00 | 98 | 1018.7 |
| 20260902041541 | 59 | 88 | 0.0 | 0.0 | 0.00 | 0.27 | 0.00 | 98 | 1018.4 |
| 20260902040039 | 59 | 88 | 0.0 | 0.0 | 0.00 | 0.27 | 0.00 | 98 | 1018.1 |
| 20260902034526 | 59 | 88 | 0.0 | 0.0 | 0.00 | 0.27 | 0.27 | 98 | 1017.8 |
| 20260902033006 | 59 | 88 | 0.0 | 0.0 | 0.00 | 0.27 | 0.27 | 98 | 1017.8 |
| 20260902031529 | 59 | 88 | 0.0 | 0.0 | 0.00 | 0.27 | 0.27 | 98 | 1017.9 |
| 20260902030104 | 59 | 88 | 0.0 | 0.0 | 0.00 | 0.27 | 0.27 | 98 | 1018.0 |
| 20260902024537 | 59 | 88 | 0.0 | 0.0 | 0.00 | 0.27 | 0.27 | 97 | 1017.9 |
| 20260902023029 | 59 | 88 | 0.0 | 0.0 | 0.00 | 0.27 | 0.27 | 97 | 1018.0 |
| 20260902021502 | 59 | 92 | 0.0 | 0.0 | 0.00 | 0.27 | 0.27 | 97 | 1018.2 |
| 20260902020145 | 60 | 92 | 0.0 | 0.0 | 0.00 | 0.27 | 0.27 | 97 | 1017.9 |
| 20260902014559 | 60 | 92 | 0.0 | 0.0 | 0.00 | 0.27 | 0.27 | 97 | 1017.9 |
| 20260902013040 | 60 | 92 | 0.0 | 0.0 | 0.00 | 0.27 | 0.27 | 97 | 1017.7 |
| 20260902011556 | 60 | 92 | 0.0 | 0.0 | 0.00 | 0.27 | 0.27 | 97 | 1017.6 |
| 20260902010058 | 60 | 92 | 0.0 | 0.0 | 0.00 | 0.27 | 0.27 | 97 | 1017.6 |
| 20260902004604 | 60 | 92 | 0.0 | 0.0 | 0.00 | 0.27 | 0.27 | 97 | 1017.5 |
| 20260902003054 | 60 | 92 | 0.0 | 0.0 | 0.00 | 0.27 | 0.27 | 97 | 1017.1 |
| 20260902001558 | 60 | 92 | 0.0 | 0.0 | 0.00 | 0.27 | 0.27 | 97 | 1017.0 |
| 20260902000046 | 61 | 94 | 0.0 | 0.0 | 0.00 | 0.27 | 0.27 | 97 | 1016.8 |
| 20260901234554 | 61 | 90 | 0.0 | 0.0 | 0.00 | 0.27 | 0.27 | 97 | 1016.6 |
| 20260901233034 | 61 | 90 | 0.0 | 0.0 | 0.00 | 0.27 | 0.27 | 97 | 1016.5 |
| 20260901231533 | 61 | 97 | 0.0 | 0.0 | 0.00 | 0.27 | 0.27 | 97 | 1016.6 |
| 20260901230047 | 61 | 97 | 0.0 | 0.0 | 0.00 | 0.27 | 0.27 | 97 | 1016.7 |
| 20260901224557 | 61 | 97 | 0.0 | 0.0 | 0.00 | 0.27 | 0.27 | 97 | 1016.5 |
| 20260901223046 | 61 | 136 | 0.0 | 0.0 | 0.00 | 0.27 | 0.27 | 97 | 1016.7 |
| 20260901221620 | 62 | 49 | 0.0 | 0.0 | 0.00 | 0.27 | 0.27 | 97 | 1016.5 |
| 20260901220052 | 62 | 49 | 0.0 | 0.0 | 0.00 | 0.27 | 0.27 | 97 | 1016.3 |
| 20260901214552 | 62 | 39 | 0.0 | 0.0 | 0.00 | 0.27 | 0.27 | 96 | 1016.2 |
| 20260901213044 | 63 | 76 | 0.0 | 0.0 | 0.00 | 0.27 | 0.27 | 97 | 1015.9 |
| 20260901211546 | 63 | 97 | 0.0 | 0.0 | 0.00 | 0.27 | 0.27 | 97 | 1015.8 |
| 20260901210025 | 63 | 97 | 0.0 | 0.0 | 0.00 | 0.27 | 0.27 | 96 | 1015.8 |
| 20260901204505 | 63 | 136 | 0.0 | 0.0 | 0.00 | 0.27 | 0.27 | 96 | 1015.8 |
| 20260901203106 | 63 | 136 | 0.0 | 0.0 | 0.00 | 0.27 | 0.27 | 96 | 1015.6 |
| 20260901201551 | 63 | 136 | 0.0 | 0.0 | 0.00 | 0.27 | 0.27 | 96 | 1015.7 |
| 20260901200103 | 63 | 136 | 0.0 | 0.0 | 0.00 | 0.27 | 0.27 | 96 | 1015.5 |
| 20260901194544 | 63 | 142 | 0.0 | 0.0 | 0.00 | 0.27 | 0.27 | 96 | 1015.5 |
| 20260901193104 | 63 | 187 | 0.0 | 0.0 | 0.00 | 0.27 | 0.27 | 97 | 1015.5 |
| 20260901191545 | 63 | 234 | 0.0 | 0.0 | 0.00 | 0.27 | 0.27 | 97 | 1015.4 |
| 20260901190041 | 62 | 236 | 0.0 | 0.0 | 0.01 | 0.27 | 0.27 | 97 | 1015.6 |
| 20260901184536 | 62 | 149 | 0.0 | 0.0 | 0.01 | 0.27 | 0.27 | 97 | 1015.7 |
| 20260901183030 | 62 | 104 | 0.0 | 0.0 | 0.02 | 0.27 | 0.27 | 97 | 1015.8 |
| 20260901181554 | 62 | 105 | 0.0 | 0.0 | 0.02 | 0.27 | 0.27 | 97 | 1015.8 |
| 20260901180044 | 62 | 118 | 0.0 | 0.0 | 0.02 | 0.26 | 0.26 | 97 | 1015.8 |
| 20260901174533 | 63 | 119 | 0.0 | 0.0 | 0.02 | 0.26 | 0.26 | 97 | 1015.5 |
| 20260901173008 | 63 | 119 | 0.0 | 0.0 | 0.01 | 0.25 | 0.25 | 97 | 1015.4 |
| 20260901171554 | 63 | 119 | 0.0 | 0.0 | 0.01 | 0.25 | 0.25 | 97 | 1015.4 |
| 20260901170048 | 63 | 119 | 0.0 | 0.0 | 0.00 | 0.24 | 0.24 | 97 | 1015.3 |
| 20260901164536 | 63 | 119 | 0.0 | 0.0 | 0.02 | 0.24 | 0.24 | 97 | 1015.4 |
| 20260901163014 | 63 | 248 | 0.0 | 0.0 | 0.05 | 0.24 | 0.24 | 97 | 1015.3 |
| 20260901161556 | 63 | 257 | 0.0 | 0.0 | 0.07 | 0.24 | 0.24 | 97 | 1015.2 |
| 20260901160049 | 63 | 98 | 0.0 | 0.0 | 0.08 | 0.24 | 0.24 | 97 | 1014.2 |
| 20260901154513 | 63 | 83 | 0.0 | 0.0 | 0.05 | 0.21 | 0.21 | 97 | 1015.2 |
| 20260901153054 | 63 | 83 | 0.0 | 0.0 | 0.03 | 0.19 | 0.19 | 97 | 1015.4 |
| 20260901151600 | 63 | 90 | 0.0 | 0.0 | 0.01 | 0.17 | 0.17 | 97 | 1015.3 |
| 20260901150036 | 63 | 88 | 0.0 | 0.0 | 0.00 | 0.16 | 0.16 | 97 | 1015.3 |
| 20260901144510 | 63 | 117 | 0.0 | 0.0 | 0.00 | 0.16 | 0.16 | 98 | 1015.0 |
| 20260901143004 | 62 | 123 | 0.0 | 0.0 | 0.00 | 0.16 | 0.16 | 97 | 1015.2 |
| 20260901141507 | 62 | 163 | 0.0 | 0.0 | 0.00 | 0.16 | 0.16 | 98 | 1015.0 |
| 20260901140047 | 62 | 233 | 0.0 | 0.0 | 0.00 | 0.16 | 0.16 | 98 | 1015.6 |
| 20260901134554 | 62 | 233 | 0.0 | 0.0 | 0.00 | 0.16 | 0.16 | 97 | 1015.8 |
| 20260901133033 | 62 | 233 | 0.0 | 0.0 | 0.00 | 0.16 | 0.16 | 97 | 1015.9 |
| 20260901131632 | 62 | 233 | 0.0 | 0.0 | 0.00 | 0.16 | 0.16 | 97 | 1015.8 |
| 20260901130113 | 62 | 233 | 0.0 | 0.0 | 0.00 | 0.16 | 0.16 | 97 | 1016.0 |
| 20260901124558 | 62 | 233 | 0.0 | 0.0 | 0.01 | 0.16 | 0.16 | 98 | 1015.5 |
| 20260901123050 | 62 | 233 | 0.0 | 0.0 | 0.01 | 0.16 | 0.16 | 97 | 1015.8 |
| 20260901121529 | 62 | 233 | 0.0 | 0.0 | 0.03 | 0.16 | 0.16 | 97 | 1016.0 |
| 20260901120106 | 62 | 233 | 0.0 | 0.0 | 0.08 | 0.16 | 0.16 | 97 | 1016.0 |
| 20260901114612 | 62 | 233 | 0.0 | 0.0 | 0.10 | 0.15 | 0.15 | 97 | 1015.7 |
| 20260901113012 | 62 | 233 | 0.0 | 0.0 | 0.13 | 0.15 | 0.15 | 97 | 1015.9 |
| 20260901111552 | 62 | 233 | 0.0 | 0.0 | 0.11 | 0.12 | 0.13 | 97 | 1016.1 |
| 20260901110038 | 62 | 233 | 0.0 | 0.0 | 0.07 | 0.07 | 0.07 | 97 | 1015.6 |
| 20260901104534 | 62 | 233 | 0.0 | 0.0 | 0.05 | 0.05 | 0.05 | 97 | 1015.5 |
| 20260901103131 | 62 | 233 | 0.0 | 0.0 | 0.02 | 0.02 | 0.02 | 96 | 1015.6 |
| 20260901101617 | 62 | 233 | 0.0 | 0.0 | 0.01 | 0.01 | 0.01 | 96 | 1015.3 |
| 20260901100057 | 62 | 233 | 0.0 | 0.0 | 0.00 | 0.00 | 0.00 | 96 | 1015.3 |
| 20260901094548 | 63 | 233 | 0.0 | 0.0 | 0.00 | 0.00 | 0.00 | 95 | 1015.2 |
| 20260901093037 | 63 | 233 | 0.0 | 0.0 | 0.00 | 0.00 | 0.00 | 95 | 1015.2 |
| 20260901091544 | 63 | 233 | 0.0 | 0.0 | 0.00 | 0.00 | 0.00 | 96 | 1015.2 |
| 20260901090037 | 62 | 233 | 0.0 | 0.0 | 0.00 | 0.00 | 0.00 | 96 | 1015.4 |
| 20260901084543 | 62 | 233 | 0.0 | 0.0 | 0.00 | 0.00 | 0.00 | 96 | 1015.4 |
| 20260901083036 | 62 | 233 | 0.0 | 0.0 | 0.00 | 0.00 | 0.00 | 96 | 1015.3 |
| 20260901081534 | 62 | 233 | 0.0 | 0.0 | 0.00 | 0.00 | 0.00 | 96 | 1015.5 |
| 20260901080035 | 62 | 233 | 0.0 | 0.0 | 0.00 | 0.00 | 0.00 | 96 | 1015.5 |
| 20260901074611 | 62 | 233 | 0.0 | 0.0 | 0.00 | 0.00 | 0.00 | 96 | 1015.3 |
| 20260901073105 | 62 | 233 | 0.0 | 0.0 | 0.00 | 0.00 | 0.00 | 96 | 1015.2 |
| 20260901071553 | 62 | 233 | 0.0 | 0.0 | 0.00 | 0.00 | 0.00 | 95 | 1015.6 |
| 20260901070056 | 62 | 233 | 0.0 | 0.0 | 0.00 | 0.00 | 0.00 | 95 | 1015.7 |
| 20260901064550 | 62 | 233 | 0.0 | 0.0 | 0.00 | 0.00 | 0.00 | 96 | 1016.2 |
| 20260901063042 | 62 | 233 | 0.0 | 0.0 | 0.00 | 0.00 | 0.00 | 95 | 1016.3 |
| 20260901061556 | 62 | 233 | 0.0 | 0.0 | 0.00 | 0.00 | 0.00 | 95 | 1016.4 |